[[{"header":{"parameterUnit":"m.s-1","parameterCategory":1,"la1":30.2991,"la2":30.254,"lo1":-89.0895,"lo2":-89.0444,"dy":0.0017,"dx":0.0017,"nx":28,"ny":28,"refTime":"2024-05-06T09:00:00:Z","depth":0,"parameterNumber":2,"parameterNumberName":"U-component_of_WINDS"},"data":[0,0,0,0,0,0,0,0,0,0,0,0,0,0,0,0,0,0,0,0,0,0,0,0,0,0,0,0,0,0,0,0,0,0,0,0,0,0,0,0,0,0,0,0,0,0,0,0,0,0,0,0,0,0,0,0,0,0,-0.1385,-0.1386,0,-0.152,-0.1521,-0.1523,-0.1581,-0.1581,-0.1581,-0.158,-0.1725,-0.1729,-0.1733,0,0,0,0,0,0,0,0,0,0,0,0,0,-0.1185,-0.1188,-0.1385,-0.1387,-0.1388,-0.152,-0.1522,-0.1523,-0.1581,-0.1581,-0.1581,-0.158,-0.1723,-0.1728,-0.1733,0,0,0,0,0,0,0,0,0,0,0,0,0,-0.1291,-0.1189,-0.1385,-0.1433,-0.1438,-0.1519,-0.1522,-0.1524,-0.1581,-0.1581,-0.158,-0.158,-0.1722,-0.1728,-0.1734,-0.1779,0,0,-0.1753,-0.1755,0,0,0,0,0,0,0,0,-0.1285,-0.1298,-0.1424,-0.143,-0.1436,-0.1533,-0.1504,-0.161,-0.1581,-0.1527,-0.158,-0.158,-0.1662,-0.1673,-0.1699,-0.1786,-0.1792,-0.1753,-0.1757,-0.1759,-0.1761,0,0,0,0,0,0,0,-0.1277,-0.1293,-0.1439,-0.1426,-0.1433,-0.145,-0.1465,-0.1524,-0.1595,-0.1532,-0.1536,-0.1551,-0.1665,-0.1693,-0.1703,-0.1794,-0.1753,-0.1758,-0.1762,-0.1764,-0.1926,-0.1927,0,0,0,0,0,0,-0.1261,-0.1286,-0.1434,-0.1443,-0.1358,-0.1454,-0.147,-0.1502,-0.1595,-0.1608,-0.1551,-0.1553,-0.1683,-0.1696,-0.1708,-0.1768,-0.1759,-0.1765,-0.1769,-0.1926,-0.1926,-0.1927,0,0,0,0,0,0,-0.1256,-0.1274,-0.1429,-0.1366,-0.1387,-0.1458,-0.1493,-0.1505,-0.1533,-0.1609,-0.1623,-0.1566,-0.1683,-0.17,-0.1761,-0.1774,-0.1768,-0.1773,-0.1925,-0.1926,-0.1927,-0.1887,0,0,0,0,0,0,-0.125,-0.1272,-0.1288,-0.1365,-0.139,-0.1477,-0.1494,-0.1508,-0.1543,-0.1547,-0.1627,-0.164,-0.1684,-0.1751,-0.1767,-0.1782,-0.1778,-0.1924,-0.1925,-0.1926,-0.1888,-0.1887,-0.1886,0,0,0,0,0,-0.1243,-0.1272,-0.1288,-0.1306,-0.1411,-0.1477,-0.1492,-0.154,-0.1544,-0.1562,-0.1611,-0.1637,-0.177,-0.1757,-0.1775,-0.1792,-0.1923,-0.1925,-0.1926,-0.1888,-0.1887,-0.1886,0,0,0,0,0,0,-0.1196,-0.1283,-0.1302,-0.1357,-0.1409,-0.1487,-0.1511,-0.1537,-0.1591,-0.1592,-0.1652,-0.167,-0.1726,-0.1766,-0.175,-0.1842,-0.1849,-0.1854,-0.1814,-0.1813,-0.1812,-0.1802,-0.1783,0,0,0,0,0,-0.1192,-0.1236,-0.1311,-0.1352,-0.1377,-0.1439,-0.147,-0.1503,-0.156,-0.1583,-0.1637,-0.1693,-0.1748,-0.1783,-0.1837,-0.1893,-0.1913,-0.1915,-0.1913,-0.1912,-0.1916,-0.1951,-0.1953,-0.1932,-0.1932,-0.1932,0,0,-0.1184,-0.1237,-0.1262,-0.1344,-0.1388,-0.1436,-0.1458,-0.1506,-0.1543,-0.1592,-0.1652,-0.1693,-0.1761,-0.182,-0.1849,-0.1855,-0.1927,-0.1914,-0.1913,-0.1918,-0.1953,-0.1955,-0.1956,-0.1933,-0.1932,-0.1932,0,0,-0.1194,-0.1238,-0.1277,-0.1321,-0.1387,-0.1429,-0.1438,-0.1513,-0.1541,-0.1603,-0.1641,-0.1686,-0.1778,-0.1825,-0.1861,-0.1889,-0.1917,-0.1905,-0.1901,-0.1934,-0.1935,-0.1937,-0.1949,-0.1952,-0.1909,-0.1909,-0.1909,0,-0.1177,-0.1247,-0.1295,-0.1342,-0.1378,-0.1422,-0.1464,-0.1505,-0.1586,-0.1611,-0.1616,-0.1733,-0.1782,-0.1853,-0.186,-0.1887,-0.1902,-0.1897,-0.1931,-0.1933,-0.1936,-0.1948,-0.1952,-0.1907,-0.1907,-0.1907,-0.1908,0,-0.1223,-0.1271,-0.1296,-0.1371,-0.141,-0.1454,-0.1511,-0.1545,-0.1574,-0.1616,-0.1679,-0.1739,-0.1806,-0.1826,-0.1856,-0.1902,-0.1904,-0.1919,-0.1928,-0.1935,-0.1947,-0.1952,-0.1905,-0.1905,-0.1906,-0.1906,0,0,-0.1207,-0.1308,-0.1317,-0.1352,-0.1429,-0.1468,-0.1515,-0.1579,-0.1608,-0.1663,-0.1706,-0.1783,-0.1798,-0.1838,-0.1874,-0.1903,-0.1923,-0.1915,-0.1918,-0.1915,-0.198,-0.1969,-0.1973,-0.1942,-0.1943,-0.1943,-0.1975,0,-0.1228,-0.1312,-0.1357,-0.1423,-0.1469,-0.1513,-0.1554,-0.1607,-0.1647,-0.1694,-0.174,-0.1794,-0.1809,-0.1834,-0.1864,-0.1914,-0.1937,-0.1913,-0.1984,-0.1986,-0.1966,-0.198,-0.1968,-0.1995,-0.198,-0.1981,-0.1982,0,-0.1264,-0.1316,-0.1385,-0.1458,-0.1479,-0.1515,-0.1578,-0.1622,-0.1684,-0.1712,-0.1757,-0.1792,-0.1846,-0.185,-0.1927,-0.1909,-0.1941,-0.197,-0.1973,-0.1982,-0.1985,-0.199,-0.2004,-0.2009,-0.1989,-0.1989,-0.1988,0,-0.1247,-0.1335,-0.1388,-0.1417,-0.1502,-0.1527,-0.1564,-0.1625,-0.1661,-0.1717,-0.1742,-0.1804,-0.1839,-0.1887,-0.194,-0.1937,-0.2012,-0.202,-0.2038,-0.2037,-0.2053,-0.2051,-0.2073,-0.2071,-0.2071,-0.2071,-0.2071,0,-0.1266,-0.1307,-0.1381,-0.1414,-0.1463,-0.1516,-0.1563,-0.1604,-0.1658,-0.1702,-0.1744,-0.1784,-0.185,-0.19,-0.1941,-0.1999,-0.2014,-0.204,-0.2051,-0.2037,-0.2034,-0.2059,-0.2059,-0.2072,-0.2072,-0.2072,-0.2071,0,-0.1255,-0.1306,-0.1367,-0.1442,-0.1463,-0.1495,-0.1561,-0.1596,-0.1638,-0.1693,-0.1709,-0.1777,-0.1837,-0.1894,-0.1975,-0.2003,-0.2062,-0.2075,-0.204,-0.2047,-0.2062,-0.206,-0.2102,-0.2111,-0.2102,-0.2102,-0.2102,0,-0.1264,-0.1297,-0.1375,-0.1406,-0.1442,-0.1491,-0.1528,-0.1582,-0.162,-0.1693,-0.172,-0.1783,-0.1836,-0.1931,-0.1989,-0.2052,-0.2068,-0.2078,-0.2078,-0.2063,-0.207,-0.2068,-0.2072,-0.2078,-0.2077,-0.2077,-0.2077,0,-0.1275,-0.1299,-0.1349,-0.1408,-0.145,-0.15,-0.1552,-0.1576,-0.164,-0.168,-0.1742,-0.1783,-0.1865,-0.1928,-0.1998,-0.2039,-0.207,-0.2077,-0.2085,-0.2071,-0.205,-0.2063,-0.2039,-0.2076,-0.2076,-0.2076,-0.2076,-0.2076,-0.1276,-0.1307,-0.1367,-0.1422,-0.1466,-0.1514,-0.155,-0.1597,-0.1648,-0.1718,-0.1748,-0.181,-0.1874,-0.197,-0.2011,-0.2062,-0.2069,-0.208,-0.2083,-0.2085,-0.2083,-0.2041,-0.2075,-0.2075,-0.2075,-0.2076,-0.2076,0,-0.1291,-0.1331,-0.1381,-0.1451,-0.1495,-0.1517,-0.1576,-0.1612,-0.1665,-0.1721,-0.1772,-0.1844,-0.1905,-0.1968,-0.2034,-0.2063,-0.2079,-0.2079,-0.2078,-0.2087,-0.2073,-0.206,-0.2065,-0.2065,-0.2065,-0.2065,-0.2065,-0.2065,-0.1303,-0.1358,-0.1389,-0.1466,-0.1508,-0.1568,-0.1599,-0.1644,-0.1689,-0.1766,-0.1816,-0.1856,-0.1916,-0.1986,-0.2044,-0.2062,-0.2085,-0.208,-0.2102,-0.2087,-0.2088,-0.2088,-0.2076,-0.2085,-0.2085,-0.2112,-0.2112,-0.2112]},{"header":{"parameterUnit":"m.s-1","parameterCategory":1,"la1":30.2991,"la2":30.254,"lo1":-89.0895,"lo2":-89.0444,"dy":0.0017,"dx":0.0017,"nx":28,"ny":28,"refTime":"2024-05-06T09:00:00:Z","depth":0,"parameterNumber":3,"parameterNumberName":"V-component_of_WINDS"},"data":[0,0,0,0,0,0,0,0,0,0,0,0,0,0,0,0,0,0,0,0,0,0,0,0,0,0,0,0,0,0,0,0,0,0,0,0,0,0,0,0,0,0,0,0,0,0,0,0,0,0,0,0,0,0,0,0,0,0,5.0711,5.0711,0,5.068,5.068,5.068,5.0562,5.0559,5.0557,5.0554,5.0525,5.0526,5.0528,0,0,0,0,0,0,0,0,0,0,0,0,0,5.0669,5.067,5.0711,5.0711,5.071,5.0681,5.068,5.068,5.0562,5.0559,5.0556,5.0553,5.0524,5.0526,5.0528,0,0,0,0,0,0,0,0,0,0,0,0,0,5.0668,5.067,5.0711,5.0648,5.0642,5.0681,5.068,5.068,5.0563,5.0559,5.0555,5.0551,5.0523,5.0526,5.0528,5.0626,0,0,5.0536,5.0538,0,0,0,0,0,0,0,0,5.0668,5.0669,5.0658,5.0653,5.0646,5.0621,5.0654,5.0662,5.0564,5.0593,5.0554,5.0549,5.056,5.0559,5.0563,5.0624,5.0623,5.0537,5.0538,5.0539,5.054,0,0,0,0,0,0,0,5.0668,5.067,5.0699,5.0658,5.0651,5.0622,5.0617,5.0655,5.06,5.059,5.0582,5.058,5.0556,5.056,5.0561,5.0623,5.0537,5.0539,5.054,5.0541,5.0761,5.0765,0,0,0,0,0,0,5.0677,5.0671,5.07,5.0698,5.0647,5.0626,5.062,5.0633,5.0599,5.059,5.0583,5.0574,5.0558,5.0558,5.056,5.0669,5.0539,5.0542,5.0543,5.0756,5.0761,5.0766,0,0,0,0,0,0,5.0676,5.0681,5.0701,5.0682,5.0682,5.0631,5.0646,5.0635,5.0639,5.0594,5.0583,5.0598,5.0555,5.0556,5.0609,5.0666,5.0543,5.0545,5.0751,5.0758,5.0764,5.0891,0,0,0,0,0,0,5.0676,5.0681,5.0717,5.0684,5.0684,5.0752,5.0649,5.0637,5.0643,5.0631,5.0604,5.0596,5.0552,5.0606,5.0612,5.0668,5.0547,5.0746,5.0754,5.0762,5.0881,5.0901,5.0917,0,0,0,0,0,5.0675,5.0755,5.072,5.0724,5.0728,5.0755,5.0755,5.0702,5.0648,5.0684,5.0655,5.0597,5.066,5.0613,5.0618,5.0676,5.0742,5.0752,5.0761,5.0873,5.0897,5.0917,0,0,0,0,0,0,5.0798,5.075,5.071,5.0782,5.0774,5.0735,5.0779,5.0729,5.0736,5.0725,5.0659,5.0654,5.0717,5.0702,5.065,5.0767,5.0691,5.0702,5.0774,5.0796,5.0814,5.0816,5.055,0,0,0,0,0,5.0834,5.0859,5.0816,5.0884,5.0882,5.0832,5.0841,5.0801,5.079,5.0786,5.076,5.0752,5.0769,5.0782,5.0796,5.0879,5.0871,5.0921,5.0939,5.0955,5.0964,5.1005,5.1026,5.0798,5.0797,5.0797,0,0,5.0908,5.0884,5.0905,5.0908,5.0897,5.0924,5.0829,5.0863,5.0883,5.0791,5.0839,5.0821,5.0807,5.0875,5.0904,5.0864,5.1026,5.0967,5.0979,5.0981,5.1017,5.1039,5.1058,5.0804,5.0803,5.0802,0,0,5.1056,5.1042,5.1095,5.1086,5.1069,5.1035,5.1048,5.1017,5.1001,5.1048,5.0979,5.1002,5.1035,5.1027,5.1027,5.1172,5.1118,5.1179,5.1272,5.1313,5.1331,5.1346,5.1396,5.1415,5.1189,5.1189,5.1189,0,5.115,5.1188,5.113,5.1167,5.117,5.1087,5.1141,5.1135,5.1124,5.1128,5.1084,5.1122,5.1107,5.1171,5.1206,5.121,5.1222,5.118,5.1333,5.1348,5.1361,5.1408,5.1427,5.1197,5.1196,5.1195,5.1194,0,5.1304,5.1332,5.1377,5.1367,5.1375,5.1422,5.1369,5.1385,5.1344,5.1315,5.1363,5.1343,5.135,5.1363,5.1324,5.1421,5.1397,5.1345,5.1266,5.1392,5.1434,5.1452,5.1207,5.1204,5.1202,5.12,0,0,5.1528,5.1484,5.1502,5.1496,5.1471,5.1491,5.1534,5.1539,5.1553,5.1549,5.1582,5.161,5.1561,5.1562,5.1521,5.1557,5.167,5.1499,5.1498,5.153,5.1774,5.1812,5.1834,5.1635,5.1638,5.1641,5.1774,0,5.1667,5.1735,5.1683,5.176,5.1784,5.1705,5.1741,5.173,5.1704,5.1721,5.1692,5.1713,5.1647,5.1647,5.1679,5.165,5.1718,5.164,5.1664,5.1665,5.1667,5.1856,5.1897,5.2024,5.1791,5.1794,5.1796,0,5.1839,5.184,5.1919,5.1887,5.1896,5.1929,5.1929,5.1947,5.1932,5.1911,5.1911,5.1861,5.1899,5.1824,5.1876,5.1824,5.1831,5.1818,5.1822,5.182,5.1737,5.1858,5.2064,5.2082,5.1822,5.182,5.1818,0,5.1992,5.2014,5.2063,5.2061,5.2026,5.2051,5.2037,5.2019,5.2025,5.2026,5.2029,5.2036,5.2039,5.2045,5.1997,5.1947,5.2055,5.1976,5.2037,5.2038,5.2061,5.206,5.2269,5.207,5.207,5.2069,5.2069,0,5.2151,5.2202,5.2131,5.2161,5.2216,5.2156,5.2211,5.219,5.2174,5.2199,5.2133,5.2157,5.2094,5.2112,5.2075,5.2122,5.2125,5.2108,5.2097,5.2113,5.2115,5.2115,5.2104,5.2074,5.2073,5.2072,5.2071,0,5.2331,5.2286,5.2334,5.2296,5.2288,5.233,5.2297,5.2324,5.2293,5.2325,5.2329,5.2281,5.2299,5.2252,5.2264,5.2239,5.2306,5.2283,5.2311,5.2303,5.2366,5.236,5.258,5.2605,5.2393,5.2395,5.2396,0,5.2435,5.2472,5.2438,5.2449,5.2439,5.2458,5.2463,5.2406,5.2415,5.24,5.2429,5.2441,5.2447,5.2479,5.2445,5.2453,5.2428,5.2505,5.2429,5.2443,5.2427,5.2424,5.2427,5.252,5.2523,5.2525,5.2526,0,5.2624,5.2599,5.2609,5.2611,5.2619,5.2619,5.2614,5.2627,5.2565,5.2579,5.2595,5.26,5.2611,5.2623,5.2623,5.261,5.2558,5.2551,5.2565,5.258,5.2594,5.2585,5.2351,5.2546,5.2544,5.2542,5.2541,5.254,5.2767,5.2795,5.2775,5.2788,5.2778,5.2774,5.2796,5.2768,5.278,5.2783,5.2749,5.2773,5.2756,5.2751,5.2743,5.276,5.2725,5.2746,5.2751,5.2757,5.2766,5.2593,5.2761,5.276,5.2759,5.2759,5.2759,0,5.295,5.2933,5.2946,5.2939,5.295,5.2899,5.2891,5.2903,5.2924,5.2912,5.2919,5.2938,5.2949,5.2917,5.2923,5.2944,5.292,5.2947,5.2944,5.2942,5.2798,5.2784,5.2966,5.2966,5.2966,5.2966,5.2966,5.2966,5.3046,5.3091,5.3064,5.3102,5.3084,5.3106,5.3105,5.3101,5.3091,5.3114,5.3123,5.3101,5.3081,5.3085,5.3094,5.3084,5.3088,5.3124,5.3106,5.2972,5.2952,5.2932,5.2919,5.3126,5.3126,5.3247,5.3248,5.3249]}]]